WetterOnline ( https://www.wetteronline.de )

Wetter aktuell Bremervörde

Aktuelles Wetter: Bremervörde (5m)

6-stündlich | Neueste Meldungen
Ortszeit Temperatur Wetter
Di, 31.03. 14:00 6.3° C wolkig
Di, 31.03. 8:00 -2.2° C wolkenlos
Di, 31.03. 2:00 -0.8° C wolkenlos
Mo, 30.03. 20:00 4.7° C wolkenlos
Mo, 30.03. 14:00 7.9° C bewölkt
Mo, 30.03. 8:00 -0.6° C starker Schneefall
Mo, 30.03. 2:00 -4.5° C wolkenlos
So, 29.03. 20:00 2.3° C wolkenlos
Ortszeit Temperatur Wetter
Di, 31.03. 14:00 6.3° C wolkig
Di, 31.03. 13:50 6.3° C wolkig
Di, 31.03. 13:40 6.4° C leicht bewölkt
Di, 31.03. 13:30 6.4° C leicht bewölkt
Di, 31.03. 13:20 6.4° C leicht bewölkt
Di, 31.03. 13:10 6.0° C leicht bewölkt
Di, 31.03. 13:00 4.6° C fast wolkenlos
Di, 31.03. 12:30 4.7° C wolkenlos
Di, 31.03. 12:00 4.5° C wolkenlos
Di, 31.03. 11:30 4.2° C wolkenlos
Di, 31.03. 11:00 3.6° C wolkenlos
Ortszeit Relative Feuchte Sichtweite
Di, 31.03. 14:00 49% 35 km
Di, 31.03. 8:00 84% 60 km
Di, 31.03. 2:00 75% 55 km
Mo, 30.03. 20:00 81% 50 km
Mo, 30.03. 14:00 79% 35 km
Mo, 30.03. 8:00 90% 1.6 km
Mo, 30.03. 2:00 79% 50 km
So, 29.03. 20:00 41% 65 km
Ortszeit Relative Feuchte Sichtweite
Di, 31.03. 14:00 49% 35 km
Di, 31.03. 13:50 49% -
Di, 31.03. 13:40 50% -
Di, 31.03. 13:30 48% >70 km
Di, 31.03. 13:20 48% -
Di, 31.03. 13:10 47% -
Di, 31.03. 13:00 56% 60 km
Di, 31.03. 12:30 66% 50 km
Di, 31.03. 12:00 65% >70 km
Di, 31.03. 11:30 69% 35 km
Di, 31.03. 11:00 71% 40 km
Ortszeit Niederschlagsmenge Niederschlagsart
Di, 31.03. 14:00 0.0 l/m2 in 6 Std. -
Di, 31.03. 8:00 0.0 l/m2 in 12 Std. -
Di, 31.03. 2:00 0.0 l/m2 in 6 Std. -
Mo, 30.03. 20:00 5 l/m2 in 12 Std. Regen
Mo, 30.03. 14:00 2 l/m2 in 6 Std. Schnee, Regen
Mo, 30.03. 8:00 0.4 l/m2 in 12 Std. Schnee
Mo, 30.03. 2:00 0.0 l/m2 in 6 Std. -
So, 29.03. 20:00 0.4 l/m2 in 12 Std. -
Ortszeit Niederschlagsmenge Niederschlagsart
Di, 31.03. 14:00 0.0 l/m2 in 1 Std. -
Di, 31.03. 13:50 keine Meldung -
Di, 31.03. 13:40 keine Meldung -
Di, 31.03. 13:30 0.0 l/m2 in 1 Std. -
Di, 31.03. 13:20 keine Meldung -
Di, 31.03. 13:10 keine Meldung -
Di, 31.03. 13:00 0.0 l/m2 in 1 Std. -
Di, 31.03. 12:30 0.0 l/m2 in 1 Std. -
Di, 31.03. 12:00 0.1 l/m2 in 1 Std. -
Di, 31.03. 11:30 0.1 l/m2 in 1 Std. -
Di, 31.03. 11:00 0.0 l/m2 in 1 Std. -
Ortszeit Stärke Spitze Richtung
km/h Bft. km/h Grad Sektor
Di, 31.03. 14:00 7 2 18 180° S
Di, 31.03. 8:00 4 1 11 10° N
Di, 31.03. 2:00 7 2 25 20° N
Mo, 30.03. 20:00 14 3 40 30° NO
Mo, 30.03. 14:00 14 3 32 340° N
Mo, 30.03. 8:00 2 1 19 230° SW
Mo, 30.03. 2:00 7 2 29 240° SW
So, 29.03. 20:00 19 3 59 40° NO
Ortszeit Stärke Spitze Richtung
km/h Bft. km/h Grad Sektor
Di, 31.03. 14:00 7 2 11 180° S
Di, 31.03. 13:50 7 2 - 180° S
Di, 31.03. 13:40 6 1 - 80° O
Di, 31.03. 13:30 4 1 7 220° SW
Di, 31.03. 13:20 4 1 - 220° SW
Di, 31.03. 13:10 4 1 - 140° SO
Di, 31.03. 13:00 4 1 14 50° NO
Di, 31.03. 12:30 9 2 17 60° NO
Di, 31.03. 12:00 11 2 17 70° O
Di, 31.03. 11:30 7 2 14 100° O
Di, 31.03. 11:00 7 2 11 90° O
Ortszeit Untergrenze Bedeckung Gattung
total tief tief mittel hoch
Di, 31.03. 14:00 1290 m 6/8 6/8 - - -
Di, 31.03. 8:00 - 0/8 0/8 - - -
Di, 31.03. 2:00 - 0/8 0/8 - - -
Mo, 30.03. 20:00 - 0/8 0/8 - - -
Mo, 30.03. 14:00 510 m 8/8 7/8 - - -
Mo, 30.03. 8:00 210 m 7/8 7/8 - - -
Mo, 30.03. 2:00 - 0/8 0/8 - - -
So, 29.03. 20:00 - 0/8 0/8 - - -
Ortszeit Bedeckungsgrad in Achtel und Wolkenuntergrenze
Di, 31.03. 14:00 4(1290m) 6(1500m)
Di, 31.03. 13:50 4(1290m) 6(1500m)
Di, 31.03. 13:40 3(1470m)
Di, 31.03. 13:30 2(1410m)
Di, 31.03. 13:20 2(1410m)
Di, 31.03. 13:10 2(1410m)
Di, 31.03. 13:00 4(1410m)
Di, 31.03. 12:30 keine Wolken
Di, 31.03. 12:00 keine Wolken
Di, 31.03. 11:30 keine Wolken
Di, 31.03. 11:00 keine Wolken
Ortszeit Luftdruck NN (hPa) Tendenz (hPa in 3 Std.)
Di, 31.03. 14:00 1032 - 1,3
Di, 31.03. 8:00 1032 + 1,6
Di, 31.03. 2:00 1030 + 1,1
Mo, 30.03. 20:00 1027 + 1,1
Mo, 30.03. 14:00 1025 - 1,7
Mo, 30.03. 8:00 1029 - 2,0
Mo, 30.03. 2:00 1033 - 0,6
So, 29.03. 20:00 1034 + 1,7
Ortszeit Luftdruck NN (hPa) Tendenz (hPa in 3 Std.)
Di, 31.03. 14:00 1032 - 1,3
Di, 31.03. 13:50 1032 keine Meldung
Di, 31.03. 13:40 1032 keine Meldung
Di, 31.03. 13:30 1032 - 1,1
Di, 31.03. 13:20 1032 keine Meldung
Di, 31.03. 13:10 1032 keine Meldung
Di, 31.03. 13:00 1032 - 0,5
Di, 31.03. 12:30 1033 - 0,1
Di, 31.03. 12:00 1033 - 0,1
Di, 31.03. 11:30 1033 + 0,4
Di, 31.03. 11:00 1033 + 0,8
Ortszeit Schneehöhe (cm)
Di, 31.03. 14:00 0
Di, 31.03. 8:00 0
Di, 31.03. 2:00 0
Mo, 30.03. 20:00 0
Mo, 30.03. 14:00 0
Mo, 30.03. 8:00 2
Mo, 30.03. 2:00 2
So, 29.03. 20:00 -
Ortszeit Schneehöhe (cm)
Di, 31.03. 14:00 0
Di, 31.03. 13:50 0
Di, 31.03. 13:40 0
Di, 31.03. 13:30 0
Di, 31.03. 13:20 0
Di, 31.03. 13:10 0
Di, 31.03. 13:00 0
Di, 31.03. 12:30 0
Di, 31.03. 12:00 0
Di, 31.03. 11:30 0
Di, 31.03. 11:00 0
Link zu dieser Seite / Seite empfehlen

Das Wetter in ...